Torna al catalogo

COSMOS 1275 DEB

AttivoPO
NORAD 42167·DEBRIS·🇷🇺 Russia

Lanciato Jun 4, 1981 da Plesetsk Cosmodrome

Loading…

Prossimi Passaggi (prossime 24 ore)

TLE

In scadenzaSource: Space-Track

Epoca: Sep 9, 2026, 11:38 UTC

1 42167U 81053SF  26252.48514317  .00000439  00000-0  37603-3 0  9995
2 42167  82.8414 339.2934 0054492 314.2722  45.3973 13.84206199645152

Traccia COSMOS 1275 DEB in tempo reale con AllMySat

Download on the App Store